Погода в Морозовске

Погода в Морозовске : погода сейчас, прогноз погоды и архив. Всё, что Вы хотите узнать о погоде в Морозовске!

Хотите узнать прогноз погоды в Морозовске? Тогда Вам сюда: Погода в Морозовске

Поиск расширенной информации на нашем сайте:

Другие новости

Новости СМИ2

Главная страница сайта

Новости сайта

02.10.2013

Напоминаем, что на нашем новом сайте вы можете получить высокодетализированные прогнозы погоды по пунктам России, СНГ и мира (включающие важные для авиации метеовеличины, такие как направление и скорость ветра, видимость, явления погоды, количество и форма облачности, нижняя и верхняя граница облачности), а также ознакомиться с разнообразными материалами по авиационной метеорологии и подборкой полезных ссылок на эту тему.

Сайт Метеоцентр.Азия посвящён разработке технологий оптимизации авиаметеорологического обслуживания, включая проектирование и перспективное создание нескольких автоматизированных авиаметеорологических систем:
- система выпуска высокодетальных прогностических карт явлений погоды для нижнего воздушного пространства по России и ближнему зарубежью;
- система верификации прогнозов TAF (выпускаемых синоптиками официальных АМСГ РФ и ближнего зарубежья) и AUTOTAF (выпускаемых сайтом Метеоцентр.Азия) - выявление ошибок, онлайн-сопоставление с фактической погодой METAR, автоматическое внесение коррективов в прогнозы при резком отклонении фактической погоды от прогноза, подсчёт оправдываемости прогнозов по элементам и в целом;
- система обработки, анализа и отображения авиаметеорологической информации для применения провайдерами метеорологической информации.

Рекомендуем: фонари прожекторы

Погода в Морозовске - сегодня

Время (UTC), дата Ветер
(°,м/с) 
Видим.   Явления Облачность Т
(°С)
Тd
(°С)
f(%) Тe
(°С)
Pmin
(гПа)
dP
(гПа)
Po
(мм)
O2
(г/м3)
Тmin Tmax R s Состояние
почвы
00 22.03.17 020 (С) 20000 м  в посл. час ливневой дождь  10/10 300 м кучево-дожд. 
[Cb calv]
+2.4 +1.5 94 1014.9  1.1  753  300           
03 22.03.17 330 (СЗ) 20000 м    10/10 600 м 
[Sc]
+2.4 +1.2 92 +1  1015.7  0.8  753  301  +2.4       
06 22.03.17 010 (С) 20000 м    8/5 600 м кучево-дожд., средняя 
[Cb calv|Ac trans]
+3.1 +0.8 85 +1  1016.6  0.9  754  300  +2.3         
09 22.03.17 360 (С) 6{10}  20000 м    5/3 600 м верхняя 
[Cu hum|Cc]
+7.8 -0.2 57 +6  1016.5  0.1  754  295           
12 22.03.17 020 (С) 7-12{12}  20000 м    4/0 средняя, верхняя 
[Ac lent|Ci fib]
+11 -4.5 33 +9  1016.2  -0.1  754  293           
15 22.03.17 050 (СВ) 4{12}  20000 м    3/0 средняя 
[Ac trans]
+7.7 -0.9 54 +6  1017.9  1.5  755  296    +11.2       
18 22.03.17 110 (В) 20000 м    8/0 средняя 
[Ac trans]
+0.5 -1.5 86 +1  1020.1  1.9  757  304           
21 22.03.17 090 (В) 20000 м    10/0 средняя 
[Ac und]
+3.2 -0.1 79 +3  1020.7  0.6  757  302           
00 23.03.17 290 (З) 20000 м    10/0 средняя 
[Ac und]
+1.5 -0.1 89 +2  1021.5  0.8  758  304           
03 23.03.17 080 (В) 20000 м    10/0 средняя 
[Ac und]
+2.1 -0.3 84 +1  1022.3  0.8  758  303  +0.5         
06 23.03.17 070 (В) 20000 м    10/6 600 м средняя 
[Sc|Ac und]
+2.9 -0.1 81 +4  1023.5  1.2  759  303           
09 23.03.17 130 (ЮВ) 20000 м    10/8 600 м средняя 
[Sc|Ac und]
+5.8 +0.8 70 +7  1023.9  0.5  760  300           
12 23.03.17 130 (ЮВ) 20000 м    8/8 600 м 
[Sc]
+8.3 +1.5 62 +9  1023.7  0.1  759  297           
15 23.03.17 130 (ЮВ) 20000 м    4/0 средняя, верхняя 
[Ac trans|Cc]
+7.4 +1.6 67 +7  1024.2  0.5  760  298    +9.4       
18 23.03.17 170 (Ю) 20000 м    8/0 средняя 
[Ac trans]
+3.9 +0.9 81 +3  1025.4  761  302           
21 23.03.17 180 (Ю) 20000 м    9/9 600 м 
[Sc]
+4.5 +1.5 81 +3  1025.5  0.2  761  301           
00 24.03.17 180 (Ю) 20000 м    10/10 600 м 
[Sc]
+4.8 +2.3 84 +4  1025.6  0.1  761  301           
03 24.03.17 230 (ЮЗ) 20000 м    10/10 600 м 
[Sc]
+4.7 +2.2 84 +4  1025.5  -0.1  761  301  +3.9         
06 24.03.17 190 (Ю) 20000 м  слаб. ливневой дождь  10/10 300 м кучево-дожд. 
[Cb calv]
+5.7 +3 83 +5  1025.8  0.3  761  300           
09 24.03.17 200 (Ю) 20000 м  {ливн. осадки}  10/10 600 м 
[Sc]
+10.1 +3.5 64 +9  1025.1  -0.6  761  295           
12 24.03.17 190 (Ю) 20000 м  {ливн. осадки}  9/4 600 м средняя, верхняя 
[Sc|Ac trans|Ci fib]
+11.9 +4.1 59 +11  1023  -1.9  759  292           
15 24.03.17 190 (Ю) 4{10}  20000 м    9/0 средняя, верхняя 
[Ac trans|Cc]
+11 +4.6 65 +10  1021.2  -1.8  758  293    +12.5  0.0     
18 24.03.17 190 (Ю) 20000 м    10/10 600 м 
[Sc]
+9.2 +4.3 71 +8  1019.9  -1.8  757  294           
21 24.03.17 200 (Ю) 5{11}  20000 м  слаб. ливневой дождь  10/10 300 м кучево-дожд. 
[Cb calv]
+7.2 +5.1 86 +5  1019.1  -0.9  756  296           
00 25.03.17 180 (Ю) 20000 м  слаб. ливневой дождь  10/10 300 м кучево-дожд. 
[Cb calv]
+6.2 +4.5 89 +4  1015.6  -3.4  753  296           
Время (UTC), дата Ветер
(°,м/с) 
Видим.   Явления Облачность Т
(°С)
Тd
(°С)
f(%) Тe
(°С)
Pmin
(гПа)
dP
(гПа)
Po
(мм)
O2
(г/м3)
Тmin Tmax R s Состояние
почвы

Для получения пояснительной информации подведите курсор к названию столбца.

ПОГОДА в Морозовске - архив

Всё, что Вы хотите узнать о погоде в Морозовске - удобно и подробно!

Выберите нужную дату (начиная с 1 января 2015* года) и нажмите кнопку "Найти".
Будут отображены архивные сводки погоды по пункту Морозовск, начиная с указанной даты.


Отображать данные в формате CSV (для использования в таблицах Excel)


Внимание! Наш архив погоды предназначен исключительно для личного некоммерческого использования в познавательных целях. Если Вам необходимы официальные справки о состоянии погоды (для производственных, юридических, коммерческих и т.п. целей), обращайтесь в органы Росгидромета.

*Примечание: данная дата относится к архиву по метеостанциям СССР (Россия, СНГ, Балтия).
Архив по метеостанциям Зарубежной Европы и Азии (кроме Китая) хранится 10 дней, по другим регионам земного шара (Китай, Африка, Америка, Австралия, Океания) - 1 день.

Морозовск - район местоположения метеостанции


Название, широта, долгота, высота метеостанции:
Морозовск 48.3°ш. 41.9°д. 90 м над ур. моря [Российская Федерация]

Дополнительная информация

В oтличие oт бoльшинства пoгoдных сайтoв мы публикуем пoдрoбную метеoинфoрмацию в детальнoм прoфессиoнальнoм фoрмате.

Характеристики температуры и влажнoсти вoздуха измеряются на высoте 2 м в тени вдали oт зданий и деревьев.
Скoрoсть ветра измеряется на высoте 10 м (на урoвне рoста челoвека скoрoсть ветра ниже в 1.5-2 раза). Если метеoстанция нахoдится в гoрoде или в лесу, тo скoрoсть ветра занижена на 2-4 м/с пo сравнению с oткрытым местoм. Скoрoсть ветра над акватoриями крупных рек и oзёр, а также на вершинах хoлмoв на 2-5 м/с выше, чем в oбычных услoвиях.
Атмoсфернoе давление в разных тoчках местнoсти мoжет значительнo oтличаться oт давления на метеoстанции, в зависимoсти oт услoвий рельефа (при пoдъёме на 10 м давление пoнижается примернo на 1 мм рт.ст.).